Lid_Strength_Index
10 10 10 9 9 9 9 9 10 11 11 10 10 9 8 8 7 6 7 5 3 3 3 2 1 1 1 1 1 1 0 -0 -0 -1 -1 -0 -1 -1
9 9 9 8 8 8 8 8 7 8 10 9 9 9 8 6 6 6 7 4 4 3 3 3 2 1 1 1 1 1 1 0 0 -1 -1 0 -1 -1
9 9 8 8 7 7 6 5 6 6 8 8 7 8 9 8 7 7 7 8 7 4 3 3 3 2 1 1 1 1 1 1 0 0 -0 -0 -0 -1
8 7 7 5 5 6 5 5 5 5 6 8 7 8 9 8 7 7 7 6 6 4 3 3 3 2 2 2 1 1 0 -0 -0 0 -0 -1 -1 -1
6 6 6 5 5 5 5 5 5 5 5 6 7 6 6 6 6 6 6 6 5 3 2 2 2 2 2 2 1 1 1 0 -0 0 0 1 1 -1
5 4 4 4 4 5 5 5 5 5 5 6 6 6 5 5 5 6 6 6 6 4 3 2 2 2 1 1 0 1 1 0 -0 0 1 1 1 1
4 4 3 3 1 1 3 4 4 5 5 5 6 6 6 5 6 5 6 6 7 7 7 6 6 5 5 2 1 0 1 -0 -0 -0 0 1 1 0
4 4 3 3 3 2 1 1 2 4 5 5 6 7 6 5 5 5 6 7 8 6 7 7 6 6 5 5 2 1 0 -0 -1 0 0 1 1 1
5 5 5 4 4 5 3 2 2 2 2 4 5 5 5 5 5 5 6 6 7 7 7 8 7 7 5 4 1 1 -0 -1 -1 -0 1 1 1 1
5 5 5 5 5 5 5 6 5 5 4 4 5 5 5 4 4 4 5 5 5 5 5 8 7 7 6 5 2 1 -0 -0 -1 -1 -0 1 1 2
6 6 6 6 4 3 6 6 6 5 3 2 2 2 2 1 2 4 5 6 7 7 5 7 7 8 7 7 6 2 1 1 0 -1 -1 0 1 1
6 6 5 5 4 4 6 7 8 7 6 5 5 4 2 3 2 4 4 6 7 7 6 8 8 9 9 7 6 5 5 2 1 0 -0 -1 0 2
6 7 7 5 4 4 4 6 7 6 5 4 4 4 4 3 3 3 3 4 6 6 5 6 7 7 9 9 8 6 6 6 5 3 1 -0 -0 1
7 7 7 5 4 5 5 4 3 2 3 4 5 6 6 5 5 4 2 2 2 3 4 4 5 7 8 9 9 8 6 6 5 4 3 -0 -0 -0
6 5 4 4 5 6 5 3 3 4 5 7 7 7 6 6 6 6 4 3 3 3 3 4 4 4 5 8 8 8 7 6 5 4 3 1 1 0
5 6 5 6 6 6 6 6 5 4 4 6 5 3 3 5 5 5 6 4 5 4 3 3 4 5 7 6 6 7 6 7 5 4 3 3 2 0
7 9 10 10 9 8 7 7 6 6 6 6 4 3 3 3 3 2 3 3 4 5 4 3 3 4 4 5 6 6 7 6 6 5 3 4 2 0
9 11 11 11 9 9 9 8 7 6 6 6 5 4 4 3 3 3 3 4 4 5 5 4 4 4 4 3 2 5 5 5 5 4 4 3 3 1
10 10 11 10 9 8 8 8 8 6 6 5 5 5 4 3 3 4 4 3 4 4 4 4 4 5 7 7 4 1 4 4 3 4 3 3 3 2
10 10 10 10 10 8 8 8 8 7 7 6 6 5 4 4 4 6 6 5 4 4 4 4 4 5 6 6 5 3 3 3 4 4 4 2 1 1
10 10 10 9 9 8 8 8 8 8 7 7 7 6 4 4 4 5 5 6 5 4 5 5 4 2 3 3 5 4 3 5 3 3 2 3 3 3
10 10 10 9 8 8 7 7 8 8 8 8 7 6 5 4 4 5 4 5 5 4 4 4 3 3 4 5 6 4 4 3 4 4 2 2 3 4
10 10 10 9 8 7 7 7 8 8 8 7 7 6 6 5 5 4 4 3 5 5 4 4 3 3 4 4 5 5 4 3 2 2 3 3 4 4